Powrót do katalogu

STARLINK-37063

AktywnyŁącznośćVLEO
NORAD 68079·PAYLOAD·🇺🇸 United States

Wystrzelony Mar 4, 2026 z Vandenberg Space Force Base

Loading…

Następne Przeloty (najbliższe 24 godziny)

TLE

ŚwieżeSource: CelesTrak SupGP

Epoka: Sep 15, 2026, 04:04 UTC

1 68079C 26042L   26258.16993056  .00070624  00000+0  20865-2 0  2585
2 68079  53.1604  14.6454 0001303  88.0585 183.5588 15.34357720    12

Śledź STARLINK-37063 w czasie rzeczywistym z AllMySat

Download on the App Store